Wind_Speed
44 45 47 49 51 53 55 55 55 55 55 55 55 55 55 54 54 54 54 54 54 54 54 54 54 55 56 56 55 54 53 51 49 50 54 55 55 59 61 60 59 58 59 60 61 63 66 68 70 71 71 70 70 69 67 66 64 61 60 59 60 63 64 63 61 59 56 54 54 52 50 48 44 42 43 46 45 41 42 44 43 43 45 44 41 38 36 35
45 45 47 48 50 52 54 55 57 57 57 57 57 57 56 56 56 56 55 55 54 54 54 53 53 54 55 55 55 55 55 54 51 53 54 50 52 58 59 59 59 59 60 60 60 61 63 65 68 69 70 71 71 69 68 66 64 62 60 60 63 66 65 63 61 58 56 55 53 52 49 47 44 43 45 47 45 42 43 44 44 43 43 42 40 39 37 36
46 46 47 48 49 50 52 54 56 57 59 59 60 59 59 59 58 58 57 56 56 55 55 54 54 54 54 54 54 55 55 54 53 57 55 48 51 55 56 58 59 60 60 60 60 60 61 63 65 67 70 71 70 69 68 67 64 63 61 63 67 67 64 62 61 59 56 55 53 51 49 46 44 44 46 47 45 43 44 44 44 43 41 40 40 39 38 37
47 48 48 48 49 50 51 52 54 55 57 59 61 62 62 62 61 60 59 59 58 57 56 55 54 54 54 53 54 54 55 54 54 59 56 50 53 53 53 56 58 60 60 60 61 60 60 61 63 65 67 70 70 70 69 67 66 63 63 66 69 66 63 62 61 59 56 55 53 51 50 47 45 45 46 47 46 45 44 44 43 42 41 41 41 40 39 37
48 48 49 49 49 50 50 51 52 54 55 57 60 62 64 64 64 63 62 61 60 59 58 57 56 55 54 54 54 54 54 53 54 58 56 53 55 54 53 53 55 58 59 61 61 61 60 61 61 62 64 67 69 69 69 68 67 65 66 70 69 65 63 62 61 59 56 55 54 52 51 48 45 46 46 47 48 46 44 43 43 42 42 42 41 41 40 39
49 49 49 50 50 50 50 50 51 52 54 56 58 60 62 64 66 66 65 64 63 62 60 59 57 56 55 54 54 54 54 54 54 56 56 55 56 56 55 53 53 55 57 60 61 61 61 60 60 61 63 64 66 68 69 69 68 67 70 71 68 65 64 62 60 59 57 56 54 53 52 48 47 49 49 49 50 48 45 44 44 44 44 42 41 41 41 40
52 51 51 50 51 51 52 51 51 51 53 54 56 58 60 62 64 66 67 67 66 65 63 61 59 58 57 55 55 55 54 54 56 57 56 55 56 57 56 55 53 53 55 58 60 61 61 60 60 61 61 61 63 66 68 69 69 69 72 71 68 67 65 62 61 59 57 56 55 54 53 51 52 53 52 51 50 48 46 46 45 45 45 43 41 40 40 39
55 54 53 52 52 52 52 52 52 52 52 53 55 57 59 60 61 63 65 67 68 68 66 65 62 61 59 57 56 55 56 57 58 58 57 55 55 56 56 56 55 54 54 55 57 59 60 60 61 61 60 61 62 64 66 68 69 71 73 72 69 67 65 63 60 59 57 56 56 55 55 54 55 55 53 52 50 48 47 46 46 45 44 42 40 40 39 38
58 57 57 55 54 54 53 53 53 53 53 53 54 56 58 59 60 61 62 64 66 67 68 68 66 65 61 59 58 58 61 61 57 57 57 54 53 53 54 55 56 56 55 54 54 56 58 61 62 62 61 61 61 61 63 65 68 72 74 72 71 69 67 64 61 59 57 56 57 57 58 57 57 56 54 51 49 48 47 46 47 46 44 43 42 41 40 39
59 60 60 59 57 56 55 55 54 55 54 54 55 55 57 58 59 60 60 61 62 64 66 67 68 68 65 63 61 63 65 61 56 57 56 54 52 52 54 54 56 57 57 55 53 54 57 61 62 62 61 60 60 59 59 61 65 70 72 72 70 69 68 65 62 60 57 57 59 59 59 59 58 56 53 51 49 48 48 49 49 47 45 44 43 42 41 40
60 61 62 61 60 59 58 57 56 56 56 56 56 56 56 57 58 59 59 59 60 61 63 65 67 68 67 66 66 68 67 61 59 59 57 55 54 54 54 55 55 57 58 57 55 55 56 59 61 61 60 60 60 59 58 59 62 66 67 68 68 68 67 64 62 60 58 58 59 61 61 60 58 56 53 52 51 51 50 51 51 48 46 45 44 43 42 42
60 61 62 63 63 62 61 59 58 57 57 57 57 57 57 57 57 58 59 59 59 59 59 62 64 65 66 67 69 72 69 63 61 60 59 58 58 57 56 56 55 56 57 57 58 57 55 55 57 59 60 61 60 59 58 59 60 62 62 63 66 67 65 63 62 60 57 57 61 64 63 60 58 56 54 53 53 53 53 52 51 49 47 46 45 45 44 43
61 61 62 64 64 64 63 62 60 59 59 59 59 59 57 57 57 58 59 59 59 58 58 59 60 63 63 64 70 73 70 66 63 62 62 61 61 59 58 57 56 56 56 57 58 59 57 54 54 57 60 61 60 59 59 58 58 59 58 59 62 63 64 64 63 60 58 59 65 66 63 60 58 56 54 54 55 54 54 54 52 49 48 47 47 46 45 44
62 62 63 64 65 66 65 64 63 62 60 60 60 60 59 58 57 57 58 59 59 58 57 56 57 60 62 65 70 71 69 69 66 64 65 65 64 62 60 59 58 57 57 57 58 59 58 55 53 55 57 58 59 59 59 58 57 56 55 56 57 58 61 63 64 62 60 63 68 67 63 61 59 57 57 56 55 55 56 55 52 50 49 49 49 48 47 45
63 63 64 64 66 67 67 66 65 64 62 61 61 60 60 59 58 58 58 59 58 57 57 55 55 57 59 66 70 67 66 67 66 67 68 69 69 66 63 61 60 59 58 58 58 58 58 56 53 52 53 57 59 59 59 57 56 55 54 53 53 54 58 62 64 64 64 68 70 67 64 63 62 60 58 57 56 56 57 56 53 51 51 51 50 49 48 46
65 64 64 65 67 67 68 68 67 66 64 63 62 61 61 60 59 58 58 59 58 58 57 55 54 54 57 65 69 65 62 63 66 68 71 73 73 70 66 64 62 60 59 58 57 58 58 56 54 52 51 54 56 57 58 57 56 55 54 53 52 53 55 59 62 65 68 70 70 68 66 65 64 61 59 57 57 57 58 56 53 52 53 53 52 50 48 47
66 66 65 66 67 68 68 68 68 67 66 65 63 62 62 61 60 60 59 59 58 58 56 54 53 53 57 64 67 66 64 63 64 67 72 76 75 72 69 66 64 61 60 58 56 56 55 54 55 53 51 51 53 55 56 55 56 55 54 54 53 53 54 56 60 64 68 70 70 69 68 67 66 63 60 59 58 58 58 55 53 54 55 54 52 49 48 48
66 66 66 66 67 69 69 69 69 68 67 66 64 64 64 63 62 61 60 59 58 57 55 54 53 54 57 63 66 66 66 64 63 65 71 75 75 73 70 68 66 63 61 59 55 54 53 53 55 55 52 48 49 52 53 55 56 56 55 55 55 54 55 56 58 61 65 67 69 69 69 69 67 63 61 59 59 59 58 56 55 56 56 54 52 50 50 50
67 67 67 66 67 69 71 69 68 68 68 67 65 65 65 64 63 62 60 59 57 57 56 54 55 56 58 62 64 64 64 63 62 62 66 70 72 72 71 70 68 66 63 59 56 54 53 54 54 53 51 48 48 50 53 55 57 57 56 56 56 55 56 55 56 59 61 64 67 69 69 70 68 64 61 60 60 60 59 57 57 57 56 55 54 53 52 51
67 67 67 67 67 69 71 70 68 69 68 68 66 66 66 66 64 62 59 58 58 58 56 55 55 57 58 59 60 60 61 63 62 62 64 66 68 70 70 70 69 67 64 60 58 56 55 53 52 52 52 53 52 52 54 55 56 57 57 57 56 55 56 54 54 56 57 60 65 67 69 70 68 64 62 61 61 60 59 57 58 58 58 57 56 55 54 53
66 67 67 68 67 68 71 71 69 69 69 68 68 67 68 67 64 61 59 59 58 58 56 55 57 59 59 59 59 59 61 62 63 64 65 66 66 67 68 69 68 67 64 63 61 58 55 51 51 53 55 56 55 52 53 54 54 55 55 55 54 53 54 53 52 54 53 56 60 62 65 68 65 61 60 60 59 58 58 59 60 60 59 59 58 56 55 55
66 66 67 67 67 68 71 71 71 70 69 69 69 68 69 66 63 60 59 59 58 58 57 56 57 60 61 60 60 59 60 62 64 66 67 66 65 64 66 67 67 66 66 66 64 59 53 50 52 56 57 58 55 52 51 52 52 52 53 52 52 53 54 52 51 52 51 53 55 56 60 63 60 56 55 55 56 58 60 60 61 61 60 59 58 57 56 55
66 66 66 67 67 67 70 72 72 71 70 70 70 69 68 64 61 60 59 59 59 59 58 57 59 62 61 60 59 58 58 61 65 67 69 67 65 64 66 66 66 67 67 66 63 58 53 52 56 58 59 58 55 53 52 50 49 49 50 50 51 53 53 52 52 52 51 52 53 54 56 58 55 51 48 48 51 56 60 60 61 61 60 59 57 57 56 55
66 65 66 66 66 67 69 71 72 72 70 70 70 69 66 63 62 61 60 60 60 60 59 59 59 62 61 59 58 57 58 60 63 66 68 68 67 66 65 65 66 67 66 65 64 60 56 57 61 61 61 59 55 54 53 49 47 47 47 48 50 51 52 52 53 53 53 53 53 53 53 53 51 47 43 42 46 52 56 58 60 60 59 59 58 58 57 56
65 65 65 65 65 66 66 69 71 72 70 70 70 68 66 64 62 61 61 61 61 61 60 59 59 63 63 58 56 57 58 58 60 63 66 67 68 67 66 67 67 66 65 65 65 62 60 62 63 63 62 59 56 55 53 49 47 46 46 47 49 50 51 51 50 51 52 52 52 51 50 50 47 44 41 39 43 48 52 55 57 57 58 58 59 59 59 58
63 63 63 64 64 64 64 66 69 71 70 69 69 68 65 64 62 62 62 61 61 62 61 59 61 65 61 55 56 59 58 56 59 62 64 66 68 69 68 68 67 67 66 66 66 64 62 63 64 62 61 59 57 56 54 50 47 46 47 49 49 49 49 48 48 49 50 51 52 50 50 49 46 42 39 38 41 45 47 49 51 53 54 57 59 60 61 60
59 60 61 62 62 62 63 65 68 69 69 68 68 66 65 64 63 64 63 61 62 64 62 61 64 64 59 57 59 59 57 58 60 61 63 66 69 70 69 67 67 69 69 69 67 64 63 64 64 62 61 59 56 55 54 51 47 47 49 50 49 49 48 47 47 48 49 51 51 50 49 48 45 41 38 37 38 40 40 42 45 47 50 53 57 59 59 59
54 56 57 58 60 61 62 62 65 67 66 66 66 64 65 65 64 64 63 62 64 65 62 63 64 62 59 57 56 56 58 60 59 60 63 67 70 71 70 68 68 70 71 69 65 63 64 64 63 63 61 58 56 56 56 52 49 50 51 50 50 50 48 47 47 48 49 49 49 48 47 45 42 39 36 35 35 36 36 38 39 41 45 49 52 54 54 55
48 50 52 55 58 59 59 59 62 64 63 63 63 63 65 65 65 64 63 63 66 65 63 64 64 60 58 55 54 56 60 59 59 60 62 65 69 70 69 69 70 71 71 68 66 65 66 65 65 65 62 59 59 59 58 54 52 54 53 51 51 50 48 47 47 47 47 45 45 45 45 44 42 38 34 33 34 34 35 36 37 38 42 44 46 47 48 49
42 44 47 51 55 56 56 57 59 61 61 61 62 63 64 65 64 63 63 64 65 64 64 64 63 60 58 55 55 59 61 61 61 60 59 63 66 69 71 72 73 73 72 70 69 68 68 69 68 65 63 63 63 62 59 56 56 56 54 52 53 51 48 47 47 46 44 42 41 42 42 42 41 36 33 33 33 33 34 35 36 38 40 41 41 42 43 44
37 39 43 47 51 53 54 54 56 60 61 60 61 62 63 64 63 63 64 64 65 65 65 64 63 60 57 55 58 61 62 62 61 57 57 60 64 67 70 71 71 71 71 70 69 69 70 69 67 64 64 66 66 64 62 59 59 57 54 54 54 51 49 48 46 44 40 39 39 40 40 40 39 35 33 32 31 31 33 35 35 37 38 39 39 40 41 41
33 35 39 43 46 49 52 52 56 60 60 59 60 62 62 62 63 63 64 65 67 68 66 64 62 60 57 57 59 61 61 61 58 55 56 59 61 63 65 67 68 67 67 66 67 68 68 67 65 65 67 67 66 65 63 62 60 57 55 55 54 51 48 46 44 41 38 37 39 39 38 39 39 37 34 32 31 32 34 35 35 36 37 38 40 40 40 39
30 33 36 39 42 46 48 51 56 58 57 58 60 61 61 62 64 66 67 69 70 67 64 62 61 59 56 56 58 59 59 58 55 53 55 59 61 62 65 67 68 67 66 67 69 68 67 66 66 66 67 66 66 64 62 60 57 55 54 53 52 49 46 44 42 39 37 38 39 39 40 39 39 37 33 31 31 32 33 33 34 35 36 38 40 40 39 38
28 31 33 36 38 41 45 51 56 56 56 58 60 60 62 65 67 68 68 69 67 64 62 60 58 56 55 55 57 58 57 56 53 52 54 58 61 62 64 66 68 68 69 71 72 69 67 65 63 63 63 63 64 63 62 60 58 57 56 55 53 50 46 45 43 40 39 41 41 41 41 39 37 35 32 31 31 32 32 32 33 34 36 38 40 39 38 38
25 28 30 33 36 40 46 52 56 55 56 58 59 60 64 67 67 67 67 66 63 61 59 57 55 54 54 55 56 56 55 54 52 50 52 56 58 61 62 64 67 69 69 70 70 69 67 64 62 63 64 64 64 64 64 63 61 60 60 57 52 50 49 49 46 44 43 44 44 42 40 38 36 35 33 32 32 32 32 32 33 34 37 40 39 37 37 38
23 25 28 31 35 40 47 52 55 55 56 58 60 63 66 65 64 64 64 62 61 59 56 54 54 54 54 54 55 54 52 50 49 49 51 54 57 60 63 65 67 69 68 68 68 68 66 64 66 67 66 66 66 66 65 63 61 61 59 53 50 53 54 53 49 47 46 46 44 41 38 37 36 35 35 34 32 32 32 32 33 34 38 41 40 37 37 37
21 24 27 30 34 39 47 53 55 55 56 60 64 65 64 62 62 63 62 60 59 56 54 54 54 54 54 54 53 52 49 47 46 46 50 54 57 59 62 64 67 69 68 68 69 68 66 66 68 68 67 68 69 69 68 65 63 62 58 54 56 60 58 53 51 49 47 45 41 38 37 37 36 34 34 34 33 33 33 33 34 34 37 43 41 38 38 37
20 23 26 30 34 41 48 53 55 56 59 62 63 62 61 61 63 62 60 59 57 55 54 54 54 53 52 52 50 49 47 45 44 45 48 53 56 58 61 64 66 68 69 70 70 69 67 68 69 69 68 69 70 72 70 67 65 63 61 61 64 62 57 53 52 49 47 44 40 38 37 36 35 32 33 35 35 34 33 34 35 35 38 43 41 38 37 37
19 22 26 31 36 43 49 53 56 59 61 61 60 59 60 61 61 59 58 57 56 54 54 53 52 51 51 50 48 46 44 43 44 46 49 52 56 59 62 64 66 68 70 70 71 70 69 70 70 69 69 70 71 71 68 65 64 64 65 65 64 60 57 55 54 52 49 45 42 41 38 36 35 33 35 37 36 34 34 34 35 35 37 40 40 38 37 37
18 23 27 32 38 44 49 53 57 60 61 60 59 60 61 61 60 58 57 56 55 53 52 51 50 50 49 48 46 44 42 41 43 46 50 54 58 59 61 64 66 69 70 70 71 71 71 70 69 69 70 70 68 64 62 64 65 65 65 64 63 61 59 57 55 53 51 47 45 42 39 38 39 37 37 38 38 38 38 38 37 37 38 39 40 39 37 37
19 24 29 34 39 45 51 56 59 61 61 61 62 62 62 60 58 57 56 55 53 51 50 50 50 49 47 45 44 43 41 40 42 46 51 56 58 59 60 62 66 69 71 71 70 70 69 69 68 68 68 66 62 60 63 67 68 66 66 66 65 64 63 61 57 54 52 49 46 44 41 42 42 40 39 39 41 42 43 42 42 40 39 40 41 40 40 40
18 23 29 34 40 46 51 56 59 60 61 62 62 62 60 58 56 56 55 53 51 49 48 48 48 47 45 43 42 41 40 40 42 46 51 55 57 58 60 62 67 70 70 69 69 68 67 67 66 66 66 64 62 62 66 69 69 68 69 69 68 67 65 62 58 56 55 53 50 47 45 44 42 40 40 41 43 43 43 43 43 42 42 43 42 42 43 42
17 22 28 33 39 44 49 54 57 60 60 60 60 59 58 56 55 54 53 50 49 48 47 46 46 44 43 42 41 39 38 40 44 48 52 55 56 57 60 63 67 69 69 68 68 68 67 65 65 65 65 65 64 63 65 70 71 71 69 69 69 67 65 62 60 59 59 57 54 51 48 45 43 42 43 44 45 44 43 42 42 43 44 45 45 44 43 42
17 21 26 31 36 41 47 52 56 58 58 58 57 56 55 55 54 52 49 48 47 46 46 45 43 41 41 41 39 38 38 41 46 50 53 54 55 56 59 62 65 67 67 67 67 66 65 64 63 64 64 64 63 63 65 69 70 69 69 68 68 67 66 64 63 63 62 59 56 53 49 46 45 45 46 47 47 46 45 44 43 44 45 46 46 45 43 42
16 19 23 29 35 41 48 53 55 56 57 56 56 54 53 52 51 49 47 46 45 44 43 42 40 39 40 39 37 37 40 43 45 48 50 51 53 55 58 61 64 65 66 67 67 67 65 64 63 62 61 61 62 62 63 64 65 66 68 70 70 70 69 67 65 65 63 59 56 54 51 48 47 47 47 48 48 47 47 46 46 46 46 46 46 45 43 43
15 18 22 28 34 40 46 52 56 56 56 55 54 53 51 50 48 46 44 42 42 41 39 37 37 37 38 37 36 38 40 42 44 47 49 50 52 55 58 61 63 65 66 68 69 68 67 65 62 60 59 60 62 63 62 62 63 64 67 70 71 71 71 69 68 66 63 60 58 55 53 52 50 49 49 49 49 49 48 48 48 48 48 47 47 46 46 46
15 20 23 27 34 40 45 50 54 55 54 53 52 51 49 46 44 43 41 40 38 37 35 35 36 36 36 36 36 38 40 42 45 48 49 50 50 52 55 57 60 64 66 68 68 68 66 63 60 59 60 62 64 64 63 63 63 63 66 69 71 72 72 71 68 66 64 62 59 56 54 55 53 51 51 51 50 50 50 50 50 50 49 48 48 48 49 49
15 21 25 28 33 38 43 46 49 51 51 51 49 47 45 43 40 38 37 37 35 33 32 33 34 34 34 34 35 37 40 43 46 48 49 49 49 49 50 53 57 61 64 66 67 66 63 61 58 58 60 62 63 63 63 63 62 61 62 64 67 69 70 69 68 67 65 64 61 58 57 58 57 55 54 53 51 51 51 52 52 52 51 50 50 51 51 51
15 20 25 30 33 36 41 44 46 46 46 46 45 43 41 39 37 36 35 34 32 31 30 30 31 33 33 32 34 37 40 43 46 48 50 49 48 48 49 52 55 58 61 63 63 62 60 58 57 58 59 61 61 61 61 61 60 59 59 60 61 62 63 65 66 67 65 64 63 62 61 61 60 58 56 55 53 53 53 54 55 54 53 52 52 53 53 52
17 19 23 29 33 36 40 43 43 42 40 40 39 38 37 37 37 36 34 32 31 31 30 29 31 33 33 33 35 38 40 42 44 47 49 48 47 47 49 50 52 54 57 58 58 57 56 55 55 56 57 58 57 57 57 57 56 56 56 56 56 56 58 60 63 64 64 63 63 64 63 63 62 61 59 57 56 55 55 56 57 57 55 54 54 54 54 54
20 22 24 28 32 35 37 38 39 38 37 36 36 36 36 36 35 33 32 32 31 31 31 32 33 35 34 34 35 37 39 40 42 44 46 47 47 47 47 47 48 50 52 53 53 52 52 51 52 52 53 52 52 52 52 53 53 53 53 53 53 54 55 57 59 60 61 62 63 63 63 63 63 63 61 60 58 57 58 59 60 59 58 56 56 56 56 55
24 26 27 29 32 35 36 37 38 38 38 37 37 37 36 34 32 32 32 31 31 31 31 32 32 34 35 35 36 38 39 40 41 42 43 44 45 46 47 47 47 46 47 48 49 50 50 49 49 50 50 50 50 50 50 51 51 51 52 53 53 54 55 56 56 57 58 59 59 60 61 62 62 62 62 60 59 58 59 61 61 60 60 59 58 58 58 57
Wind_Direction
276 272 269 265 262 260 258 256 254 253 251 250 249 247 246 245 245 244 244 244 244 244 245 245 244 244 243 241 240 241 241 241 241 241 241 240 240 241 241 241 241 240 239 239 237 236 235 234 234 234 234 234 235 234 235 235 235 234 234 234 235 235 235 235 236 237 237 238 239 241 242 243 243 243 243 244 246 246 247 248 246 244 247 251 254 254 254 255
277 275 272 269 266 263 260 258 256 254 253 252 250 249 247 245 244 244 243 243 243 243 243 244 244 244 244 242 241 240 240 240 240 241 241 239 239 239 240 240 240 239 239 239 238 237 236 235 234 234 234 234 234 234 234 235 235 234 233 234 235 235 235 236 237 237 238 238 239 240 241 241 241 241 242 243 243 242 244 246 246 246 246 249 252 254 254 254
275 274 273 271 269 266 263 261 258 256 254 253 252 251 249 247 245 244 243 242 242 242 242 242 243 243 244 243 242 240 239 239 239 241 240 238 239 239 238 239 239 239 238 238 238 238 237 236 235 234 233 233 234 234 234 234 234 234 234 234 235 235 236 237 237 238 238 239 239 240 240 240 240 240 241 243 242 241 241 244 246 247 247 248 249 251 252 252
275 273 271 271 270 268 266 263 261 258 256 254 253 252 251 249 247 245 244 243 242 241 241 241 241 242 243 243 243 242 240 238 238 241 239 237 239 239 238 238 237 238 238 237 237 237 237 236 235 234 234 233 233 233 233 233 233 233 233 235 235 235 236 237 237 238 238 239 240 240 240 239 239 240 241 243 243 241 240 242 245 247 248 247 247 248 249 249
276 273 271 269 268 268 267 265 263 261 258 256 254 252 251 250 249 247 246 244 243 242 241 241 241 241 241 241 242 242 242 239 239 240 238 237 239 239 238 237 236 237 237 237 237 236 236 236 236 235 234 234 233 233 233 233 232 232 233 235 235 235 235 236 237 237 237 238 239 239 239 238 239 240 240 242 242 241 241 241 243 245 246 245 245 245 246 247
276 274 272 269 267 265 265 265 264 262 260 258 256 254 252 250 250 249 247 246 244 243 242 241 241 241 240 239 239 240 241 241 241 241 237 236 238 238 237 237 236 236 236 236 236 236 236 236 236 235 235 234 233 233 232 232 232 232 233 235 235 235 235 235 237 237 237 238 239 239 238 238 238 238 237 238 241 241 240 240 240 242 243 244 244 244 245 246
275 274 272 270 267 265 263 263 262 262 261 259 258 256 253 251 250 249 248 247 246 244 243 242 241 241 240 238 238 238 239 239 240 240 237 234 236 238 237 237 236 236 236 236 236 236 236 236 236 236 235 235 234 233 232 232 231 232 234 234 234 234 235 235 236 237 237 237 238 239 238 236 237 237 236 237 239 240 241 240 240 241 243 244 245 245 245 246
273 272 271 269 267 265 264 262 261 260 260 259 258 257 256 253 251 249 248 247 246 245 244 243 242 241 240 238 238 237 236 236 237 239 238 235 236 238 238 237 237 236 236 235 235 236 236 235 235 235 235 234 234 233 233 232 232 232 234 234 234 234 234 234 235 236 237 238 239 239 238 236 237 238 238 238 240 241 241 242 242 242 243 244 245 245 245 246
272 271 270 268 267 265 263 262 260 259 259 258 258 257 256 255 253 250 249 247 246 245 244 243 242 241 240 239 238 238 237 235 235 239 240 238 238 239 239 238 237 237 236 235 235 235 234 234 233 233 234 234 234 234 234 234 233 233 234 234 234 234 234 234 234 235 236 238 239 239 238 237 237 238 238 240 241 241 242 243 243 242 242 243 243 244 245 245
271 269 268 267 266 264 263 261 260 259 258 257 257 256 255 254 254 252 250 248 247 246 245 244 242 241 240 239 239 239 238 235 234 238 240 240 239 240 240 238 237 237 236 235 234 234 233 233 233 233 233 234 235 234 234 234 235 235 235 235 235 235 235 235 234 234 235 237 239 239 239 238 238 239 239 239 241 241 242 243 243 242 241 242 243 244 245 245
271 268 267 266 265 263 262 260 259 258 257 256 256 256 255 254 253 252 251 249 248 246 245 244 243 241 240 239 239 240 238 235 234 236 237 238 238 238 239 238 237 236 236 235 234 234 233 233 233 233 233 234 234 234 233 233 234 236 236 236 237 237 237 236 236 235 235 237 240 240 239 238 238 238 238 238 239 239 239 241 243 243 243 243 244 245 245 245
271 268 266 265 264 262 261 259 258 256 256 255 255 255 254 253 252 251 251 250 248 246 245 243 243 241 240 239 239 239 237 235 234 236 237 237 237 236 236 237 237 236 236 235 234 233 233 233 232 232 232 232 233 233 233 233 234 236 236 236 236 237 237 236 236 235 235 237 240 240 239 238 237 237 238 238 238 239 239 240 242 243 244 244 244 245 245 245
271 268 265 263 262 261 260 259 257 255 254 253 253 253 253 253 252 250 250 249 248 247 245 244 243 241 240 239 239 237 236 235 234 236 238 238 238 237 236 236 236 236 235 235 235 234 233 232 232 231 231 232 232 233 233 234 235 237 237 237 237 236 236 235 235 234 233 236 240 240 239 239 238 237 237 238 239 239 240 240 241 242 244 244 244 245 245 246
270 267 265 262 260 259 258 257 256 255 253 252 251 252 252 252 251 250 248 248 247 247 245 244 242 241 239 239 239 237 235 235 234 235 237 238 238 237 236 236 236 236 234 233 234 233 233 231 231 231 231 231 231 231 232 233 235 236 237 237 237 237 236 235 234 232 231 234 238 239 238 239 238 236 236 237 239 240 241 240 240 241 243 244 244 245 246 246
268 266 264 261 259 257 256 256 255 254 252 251 250 250 250 250 250 249 247 247 246 246 245 244 242 241 239 239 239 236 235 235 233 233 235 237 237 235 234 235 235 236 236 234 233 233 232 231 231 232 231 230 230 231 232 233 234 235 235 235 236 235 235 235 234 232 231 233 237 238 238 238 238 236 236 237 238 240 242 241 240 241 242 243 244 245 246 248
267 264 262 260 258 256 254 254 253 253 252 250 248 248 248 249 248 248 246 245 244 244 244 243 243 241 238 238 238 236 234 233 232 231 232 234 235 234 233 233 234 235 237 236 235 234 233 231 231 231 231 231 230 231 231 232 233 234 235 235 234 233 233 234 233 232 231 233 236 238 238 238 238 237 236 236 238 240 242 242 242 242 242 242 243 245 247 248
265 263 260 258 257 255 253 252 251 251 250 249 247 246 246 247 247 246 245 243 243 243 243 243 242 241 238 238 237 234 232 231 230 229 230 232 233 233 233 233 234 234 236 236 236 236 235 233 232 232 231 231 230 230 230 230 231 232 232 233 232 231 231 231 232 232 233 234 236 237 238 238 238 237 236 237 238 240 242 243 242 242 242 243 244 245 246 247
264 261 258 256 254 253 252 250 249 248 248 247 246 245 244 245 245 244 243 242 241 241 241 241 241 240 238 238 237 234 231 230 229 229 231 232 233 233 233 233 233 234 235 235 236 236 235 234 233 232 231 231 231 230 229 228 228 228 229 230 230 230 230 230 230 231 233 235 236 238 239 239 239 238 237 238 239 240 242 243 243 243 244 244 245 245 245 246
263 260 257 253 251 251 250 248 247 246 246 245 244 243 243 242 243 242 241 241 240 239 239 239 240 240 239 238 237 235 233 231 230 231 233 233 233 233 233 233 234 234 235 235 236 236 235 234 233 232 232 232 232 230 228 227 227 226 227 228 230 230 231 231 232 232 232 233 235 237 238 240 239 238 238 238 239 240 242 243 244 245 245 245 244 245 245 245
262 259 256 252 249 248 248 247 245 244 243 243 242 241 241 241 241 240 240 239 238 237 236 237 238 239 239 239 239 237 234 231 229 230 232 233 233 232 232 232 233 234 234 235 235 235 234 233 233 232 231 231 230 229 227 227 226 226 227 229 230 232 233 233 234 235 234 234 235 236 237 239 239 238 237 238 239 241 243 244 245 245 245 245 244 245 246 246
262 258 255 252 248 245 245 245 243 242 241 241 240 239 239 239 239 239 238 238 236 235 235 234 236 238 238 238 237 235 233 230 228 228 229 231 231 230 230 230 231 232 233 234 234 234 233 233 233 232 232 231 230 230 229 228 227 227 228 229 230 232 234 233 234 236 236 235 237 238 239 240 240 240 239 239 239 240 242 243 244 245 245 245 246 246 246 247
262 258 254 251 247 243 243 243 242 240 239 239 239 238 238 237 237 237 237 237 236 234 233 233 235 237 236 236 236 234 232 230 228 227 228 229 229 229 229 229 228 229 230 231 232 233 233 233 233 232 232 231 231 231 232 229 227 227 227 227 228 229 231 231 233 236 236 237 238 239 240 241 242 241 240 240 239 239 240 242 244 245 246 247 247 247 247 248
261 258 254 251 247 243 241 241 240 239 238 237 237 237 236 236 236 236 235 235 234 233 232 232 233 236 236 236 236 235 233 231 229 227 227 227 227 227 227 226 226 227 227 229 230 230 229 230 231 231 231 231 230 231 232 230 228 227 227 227 227 229 230 229 230 232 233 235 236 237 239 240 241 241 240 240 239 239 241 243 244 246 248 248 249 248 248 248
261 257 254 250 247 243 240 239 239 238 236 235 236 235 235 234 233 233 233 233 232 231 231 231 233 236 236 235 236 236 234 232 231 229 228 227 226 226 225 224 225 225 225 226 227 226 225 225 227 227 229 229 228 230 231 230 228 228 228 228 228 229 228 228 229 231 232 233 235 237 238 240 241 242 242 241 241 241 242 244 245 246 248 249 250 250 249 248
261 257 253 250 246 243 239 237 237 237 235 234 234 234 233 231 231 231 232 231 231 230 230 230 232 235 235 233 235 237 235 234 232 231 230 228 227 226 225 224 223 223 223 224 225 224 222 224 226 226 227 227 226 229 230 229 228 228 228 229 229 229 228 227 228 232 234 234 235 236 239 241 240 240 240 240 240 241 242 243 245 246 247 249 249 250 249 249
260 256 252 249 246 243 239 236 235 236 234 233 232 231 230 229 228 229 229 229 230 230 229 230 231 234 234 233 234 235 235 235 233 231 229 228 227 226 225 224 222 222 221 221 222 221 221 223 225 226 227 226 225 228 229 228 228 228 229 230 229 228 228 227 227 230 233 234 234 234 236 238 238 238 237 237 237 239 241 242 244 245 246 247 248 248 248 248
259 255 251 248 245 242 237 233 233 234 233 231 231 229 228 227 226 227 226 226 228 228 228 229 232 233 233 231 232 233 234 234 232 230 228 226 226 225 225 224 222 222 221 220 220 220 221 223 224 225 226 226 226 228 230 229 229 229 231 231 230 228 227 225 225 227 231 233 233 233 235 238 238 238 237 236 237 239 240 241 242 243 244 245 246 246 247 247
257 253 249 246 243 240 236 232 231 232 231 230 229 227 226 225 224 225 225 224 226 227 226 228 231 232 232 232 233 235 235 234 232 230 227 225 224 224 223 222 222 222 222 220 218 219 220 222 223 224 224 225 225 227 228 227 227 229 230 231 231 229 226 225 225 226 229 233 234 234 235 237 237 237 236 236 237 238 238 238 239 240 242 243 245 246 247 247
255 250 246 242 240 238 235 231 229 230 229 227 226 224 223 223 222 223 223 223 225 226 226 228 230 231 232 233 233 235 236 236 234 231 228 226 224 222 221 221 220 221 221 219 216 216 218 219 220 221 221 221 222 224 225 225 226 228 229 230 231 230 227 225 225 226 229 232 236 237 236 235 234 232 232 233 235 235 236 237 237 238 239 241 244 246 247 247
253 247 242 238 236 234 232 228 226 227 227 225 223 222 221 221 220 220 221 222 224 226 226 228 230 230 231 231 232 234 235 235 234 232 229 227 225 222 220 219 219 219 219 217 215 215 216 217 218 218 219 219 220 221 222 222 224 227 228 229 231 230 227 225 225 225 227 230 235 238 238 236 234 230 227 229 232 234 236 237 237 237 238 240 242 244 245 245
250 244 239 235 232 229 228 224 221 222 223 221 220 219 219 219 218 218 220 221 224 225 226 227 229 230 230 230 231 233 234 235 234 231 229 227 225 223 222 221 220 219 218 217 216 216 217 217 217 217 218 218 219 221 221 221 223 226 227 229 231 230 228 225 225 225 225 228 233 237 238 237 234 227 223 225 227 230 232 234 235 237 239 241 242 243 244 245
246 240 235 231 227 224 223 219 217 218 219 218 217 217 216 216 216 217 218 220 222 224 225 226 228 229 229 230 232 234 235 236 234 231 228 226 224 223 222 223 222 220 219 218 217 217 218 218 217 217 218 218 219 220 221 222 224 226 227 229 231 232 230 227 226 224 223 227 231 235 238 238 234 226 220 220 221 225 229 231 234 238 239 240 241 241 243 244
241 235 230 227 223 220 217 214 213 215 215 215 215 214 214 213 214 215 216 219 221 223 224 226 227 229 229 231 233 235 236 236 234 230 227 225 223 220 219 219 220 218 217 217 217 217 218 218 217 218 219 219 220 221 222 224 227 229 230 231 233 234 233 231 229 226 224 226 228 230 234 237 236 231 221 217 220 226 231 233 236 239 240 240 240 240 241 242
236 231 226 222 218 214 210 208 210 212 211 212 212 211 211 212 213 214 216 219 221 222 224 226 228 230 231 232 234 235 236 236 233 229 227 226 223 219 217 216 216 216 214 214 214 215 216 217 218 220 221 221 221 222 222 223 224 227 228 230 232 233 233 233 230 227 225 226 226 226 228 232 236 236 226 216 219 226 231 234 237 238 239 239 240 240 241 242
231 227 222 217 212 207 204 204 206 207 207 209 209 209 210 211 212 214 216 219 221 222 225 227 229 231 231 232 234 235 235 234 231 227 226 226 223 219 216 214 214 214 213 213 214 214 214 214 215 218 220 221 221 221 222 222 223 225 227 228 230 232 233 233 231 228 227 226 224 222 223 227 231 235 232 221 217 224 229 233 236 237 238 241 242 242 243 243
225 220 216 212 206 201 199 200 202 203 204 205 206 208 210 211 212 214 216 218 220 222 224 227 229 231 232 233 234 235 235 234 231 227 224 223 220 217 214 211 211 212 212 212 213 214 213 213 213 214 215 217 219 219 220 222 223 226 229 230 231 232 231 231 231 229 229 227 223 219 220 224 226 229 233 228 220 222 227 231 233 234 238 242 243 242 242 243
217 213 209 206 201 196 195 196 198 199 201 203 205 207 208 209 211 214 216 217 220 222 224 227 229 230 231 233 234 235 234 233 230 226 223 220 217 215 213 210 208 209 209 209 211 212 212 213 214 213 213 215 217 218 218 219 221 224 227 228 230 231 230 231 232 231 231 229 224 221 221 225 225 225 232 234 228 224 225 225 226 228 235 242 242 241 241 243
210 204 201 199 194 191 192 193 194 196 199 203 205 206 206 208 210 213 214 216 219 221 223 226 228 230 231 233 233 233 233 231 228 222 220 218 215 212 211 210 208 207 207 207 209 209 210 212 214 213 213 214 216 217 217 217 219 222 224 225 227 229 230 231 233 234 234 232 228 225 224 226 227 225 230 235 233 229 226 223 222 224 234 243 245 244 244 246
203 196 193 192 190 189 190 190 190 194 198 201 203 204 206 208 210 211 213 215 217 220 223 225 227 229 231 232 232 232 231 229 224 217 214 214 213 211 208 207 207 207 207 207 208 208 209 211 213 212 213 214 215 218 218 218 219 221 223 225 228 230 230 231 232 233 234 232 229 228 226 228 228 225 227 232 233 232 227 223 223 225 233 243 246 245 246 248
195 191 189 188 188 188 188 187 189 192 196 198 200 203 205 207 209 210 212 215 217 218 221 224 227 229 230 230 230 229 227 224 220 214 210 210 211 209 208 205 205 207 208 207 208 208 209 210 212 212 214 215 216 218 219 219 220 222 224 226 229 230 231 232 233 234 234 232 230 228 225 226 227 224 224 229 231 230 227 225 227 227 230 239 243 243 244 245
192 189 187 186 186 186 186 185 187 191 193 196 199 202 204 206 207 209 212 214 217 218 220 221 224 227 229 229 229 227 223 218 215 212 209 209 209 208 207 205 205 206 207 207 208 209 210 211 211 212 214 215 216 217 218 220 220 221 223 225 227 229 230 231 233 234 236 234 232 230 227 226 227 224 223 226 229 231 230 230 231 231 231 236 240 242 242 243
191 190 188 186 186 185 185 185 186 188 192 195 198 201 203 205 207 209 211 213 215 218 220 221 223 225 227 228 227 225 220 213 210 209 209 209 208 206 206 204 205 206 207 207 208 209 211 212 212 212 213 214 214 215 217 219 220 220 222 224 226 227 229 230 232 234 236 236 234 232 229 228 228 226 226 228 231 233 234 234 235 236 237 238 240 242 243 244
187 188 188 187 186 185 185 185 185 187 191 194 197 200 202 204 206 208 210 211 213 215 218 220 222 223 225 226 224 220 215 210 207 206 208 209 207 206 205 204 205 206 206 207 208 209 210 212 212 212 213 213 214 214 216 219 220 220 222 224 227 228 229 230 231 233 235 236 234 233 230 228 228 228 229 231 233 234 235 236 237 239 240 242 243 243 244 246
181 185 187 186 186 183 182 183 185 187 189 192 196 198 201 203 205 207 209 210 211 213 215 218 220 222 224 224 221 214 209 206 206 205 206 207 207 206 205 205 205 206 206 206 208 209 211 212 213 213 213 214 214 215 217 220 221 221 222 225 227 229 230 230 231 232 234 235 236 235 233 230 229 229 230 232 234 234 235 237 238 240 242 244 246 246 247 248
174 179 183 182 182 181 180 181 184 186 188 192 194 197 200 202 204 206 207 209 210 212 214 216 218 221 223 221 217 211 206 203 204 206 206 207 206 205 205 205 204 205 205 206 207 209 210 212 213 213 213 214 216 217 219 222 223 223 223 225 227 229 230 230 231 232 234 235 237 238 238 236 234 233 233 235 236 236 237 238 239 241 242 244 247 249 250 250
164 170 177 179 180 181 180 179 182 185 188 190 193 196 199 201 203 204 206 208 210 212 214 216 217 218 219 217 212 207 203 200 201 203 205 206 207 206 206 204 203 203 204 206 207 208 210 211 212 212 212 213 215 217 219 221 223 223 224 225 227 229 231 231 232 233 235 236 237 238 240 240 239 238 237 238 239 239 240 240 241 242 243 245 248 251 252 253
157 161 170 176 178 179 180 180 181 184 186 189 192 194 197 199 201 203 204 206 209 212 213 214 215 214 213 210 207 203 199 197 199 201 202 204 206 208 208 206 203 203 204 206 208 209 210 210 211 212 212 213 214 215 217 219 222 223 224 225 227 229 231 232 234 235 236 237 238 239 240 241 241 240 240 240 241 242 242 243 244 245 246 247 249 251 253 255
154 157 163 171 176 178 179 180 181 182 184 187 190 192 195 197 199 201 203 205 208 210 212 213 213 210 207 204 201 198 196 195 197 199 200 201 202 206 208 207 205 204 205 206 208 209 210 210 211 213 214 215 215 216 217 219 221 223 225 227 228 231 233 234 235 237 237 238 240 239 239 241 241 241 241 242 242 243 244 244 245 246 247 248 249 252 254 256
147 153 158 166 173 175 175 177 180 181 182 184 187 190 192 194 197 199 202 203 205 207 207 209 208 204 200 196 194 194 194 194 196 197 198 198 197 200 205 207 206 205 205 207 208 210 211 211 212 214 216 217 217 217 218 220 222 224 226 228 231 233 235 237 237 238 239 240 241 241 240 241 242 242 242 242 242 243 244 246 246 247 247 249 251 253 255 256
136 146 154 160 166 169 170 173 177 180 181 182 185 188 190 192 195 197 199 199 200 201 199 200 201 197 191 188 188 190 191 192 195 197 198 197 194 196 200 204 205 206 206 207 209 211 212 213 214 216 218 219 219 219 221 223 224 226 228 230 233 235 236 237 238 240 241 242 243 243 243 243 244 244 243 243 242 243 244 245 247 248 249 250 251 252 254 254
128 138 147 153 158 163 166 168 171 174 177 180 183 186 189 193 195 196 196 196 195 194 192 193 195 192 185 181 184 187 187 189 193 198 199 196 193 193 195 199 203 205 206 207 208 211 213 215 217 219 220 220 220 221 222 225 226 227 228 230 232 234 235 236 237 239 240 241 242 243 244 244 244 244 243 243 242 242 243 244 246 248 249 250 250 251 252 252
126 133 141 148 152 156 159 162 166 170 174 179 182 185 188 191 193 193 193 193 191 190 189 190 192 190 181 177 181 184 184 186 189 194 197 196 194 193 193 195 199 202 205 207 208 210 212 214 217 219 220 220 220 220 221 223 225 226 227 228 228 230 232 234 235 236 238 239 240 241 242 242 243 243 243 243 242 242 242 244 245 247 249 249 250 251 252 252
Height
10621 10621 10621 10621 10621 10621 10622 10623 10625 10626 10627 10628 10629 10631 10633 10634 10636 10638 10640 10642 10644 10646 10648 10650 10653 10655 10657 10661 10664 10666 10670 10672 10675 10676 10674 10679 10686 10685 10687 10691 10696 10699 10701 10704 10707 10710 10713 10716 10720 10725 10729 10732 10735 10740 10745 10748 10754 10761 10765 10767 10765 10760 10759 10763 10770 10775 10781 10784 10785 10788 10792 10798 10803 10805 10805 10804 10807 10810 10810 10810 10812 10814 10814 10817 10821 10825 10827 10828
10615 10614 10614 10614 10614 10614 10615 10616 10617 10618 10620 10621 10622 10624 10625 10627 10629 10631 10633 10635 10637 10639 10642 10644 10647 10649 10651 10655 10658 10661 10663 10666 10670 10668 10667 10677 10681 10678 10682 10686 10690 10693 10695 10699 10702 10705 10707 10711 10715 10719 10722 10726 10729 10735 10740 10744 10750 10755 10759 10760 10753 10750 10756 10763 10768 10772 10777 10780 10782 10786 10789 10795 10799 10799 10798 10800 10804 10806 10806 10806 10807 10810 10812 10816 10819 10822 10824 10825
10608 10608 10607 10607 10607 10607 10608 10608 10609 10611 10612 10613 10615 10616 10618 10619 10621 10623 10626 10628 10630 10633 10636 10638 10641 10643 10646 10649 10652 10655 10657 10661 10664 10658 10663 10675 10673 10671 10677 10680 10683 10686 10689 10693 10696 10699 10702 10706 10709 10712 10716 10720 10724 10729 10734 10739 10745 10749 10753 10749 10742 10747 10756 10761 10765 10769 10774 10776 10779 10783 10786 10791 10794 10794 10793 10796 10800 10802 10802 10803 10804 10807 10810 10814 10817 10819 10820 10821
10602 10601 10600 10600 10600 10600 10601 10601 10602 10603 10604 10605 10606 10608 10610 10611 10613 10616 10618 10621 10623 10626 10629 10632 10635 10637 10640 10644 10646 10648 10650 10655 10656 10651 10660 10669 10664 10667 10672 10674 10678 10680 10684 10688 10690 10693 10697 10700 10703 10706 10710 10714 10718 10723 10728 10734 10738 10743 10744 10735 10735 10747 10754 10757 10761 10765 10770 10773 10775 10779 10782 10787 10790 10789 10791 10793 10795 10797 10799 10800 10802 10804 10807 10810 10813 10815 10817 10817
10595 10594 10593 10593 10593 10593 10593 10594 10594 10595 10596 10597 10598 10599 10601 10603 10605 10607 10610 10613 10615 10618 10622 10625 10628 10631 10635 10638 10640 10642 10644 10648 10648 10646 10656 10661 10658 10661 10665 10668 10672 10674 10678 10681 10684 10688 10691 10694 10697 10701 10705 10708 10714 10718 10722 10727 10731 10736 10732 10726 10735 10746 10749 10753 10757 10761 10766 10768 10771 10774 10776 10782 10785 10785 10787 10788 10789 10792 10795 10798 10800 10801 10803 10805 10809 10812 10813 10813
10588 10587 10586 10586 10585 10586 10586 10586 10587 10587 10588 10589 10589 10590 10592 10594 10596 10599 10602 10605 10608 10611 10614 10618 10621 10625 10628 10632 10634 10636 10639 10642 10642 10641 10648 10653 10652 10654 10659 10663 10666 10669 10673 10674 10678 10682 10686 10689 10693 10696 10698 10703 10708 10711 10716 10719 10725 10728 10721 10722 10734 10740 10744 10750 10752 10757 10762 10764 10766 10768 10771 10777 10777 10779 10782 10782 10783 10788 10791 10793 10796 10797 10798 10801 10805 10807 10809 10810
10580 10579 10579 10578 10578 10578 10578 10579 10579 10580 10580 10581 10581 10581 10583 10585 10587 10590 10593 10596 10599 10603 10607 10611 10614 10617 10621 10626 10628 10630 10633 10635 10633 10633 10640 10645 10646 10648 10653 10657 10661 10665 10667 10669 10673 10676 10680 10685 10688 10690 10693 10698 10701 10704 10709 10712 10718 10719 10714 10720 10730 10734 10740 10745 10749 10753 10757 10760 10761 10762 10767 10770 10769 10772 10777 10777 10780 10784 10786 10789 10792 10793 10795 10798 10802 10804 10806 10807
10572 10572 10571 10570 10570 10570 10570 10570 10571 10572 10572 10573 10573 10573 10575 10576 10579 10581 10584 10588 10591 10595 10599 10603 10607 10610 10614 10619 10621 10625 10625 10623 10625 10627 10634 10640 10641 10644 10648 10651 10655 10659 10661 10664 10668 10671 10676 10680 10682 10685 10688 10692 10694 10698 10703 10706 10711 10711 10709 10717 10725 10730 10736 10741 10745 10749 10752 10755 10756 10757 10760 10763 10764 10767 10772 10775 10778 10781 10783 10785 10787 10789 10792 10796 10799 10800 10802 10803
10563 10563 10562 10562 10561 10561 10562 10562 10563 10563 10564 10564 10564 10565 10566 10568 10570 10573 10576 10579 10582 10586 10590 10594 10598 10602 10607 10611 10615 10617 10613 10614 10623 10626 10629 10635 10638 10640 10642 10646 10649 10652 10655 10659 10663 10667 10671 10672 10674 10678 10682 10685 10689 10694 10698 10702 10705 10703 10705 10712 10719 10725 10730 10736 10741 10744 10748 10750 10750 10751 10753 10757 10760 10762 10769 10773 10776 10778 10780 10781 10782 10785 10789 10792 10794 10796 10798 10799
10553 10553 10552 10552 10552 10552 10553 10553 10554 10554 10556 10556 10556 10557 10558 10560 10562 10565 10568 10570 10574 10577 10581 10586 10589 10593 10599 10603 10607 10606 10603 10613 10622 10621 10624 10630 10633 10635 10636 10639 10642 10645 10649 10653 10658 10661 10662 10664 10668 10673 10677 10682 10686 10690 10694 10698 10698 10697 10701 10709 10715 10721 10725 10732 10738 10742 10745 10744 10743 10744 10746 10751 10756 10760 10767 10770 10772 10774 10776 10775 10776 10781 10786 10788 10790 10792 10793 10794
10543 10542 10542 10542 10542 10543 10543 10544 10545 10545 10547 10547 10548 10548 10550 10552 10554 10557 10560 10562 10565 10568 10573 10576 10580 10586 10590 10595 10598 10595 10597 10610 10615 10614 10618 10622 10625 10627 10628 10631 10635 10638 10642 10647 10651 10653 10655 10659 10664 10669 10674 10677 10680 10685 10689 10691 10690 10691 10698 10706 10712 10716 10722 10730 10735 10739 10741 10740 10737 10736 10739 10745 10752 10757 10762 10765 10766 10768 10770 10770 10772 10777 10782 10785 10786 10787 10789 10789
10531 10531 10531 10531 10532 10532 10533 10534 10535 10536 10537 10538 10539 10540 10541 10544 10546 10549 10551 10554 10557 10560 10564 10567 10572 10577 10581 10587 10586 10583 10591 10603 10607 10610 10612 10614 10616 10618 10621 10624 10628 10632 10636 10640 10643 10646 10650 10655 10660 10665 10668 10670 10675 10680 10682 10684 10685 10688 10696 10703 10706 10711 10718 10725 10730 10734 10737 10735 10729 10726 10733 10741 10748 10753 10756 10759 10760 10762 10765 10766 10769 10773 10777 10780 10781 10782 10784 10785
10520 10519 10520 10520 10520 10521 10522 10523 10524 10526 10527 10529 10530 10531 10533 10535 10538 10541 10543 10546 10548 10552 10556 10560 10564 10568 10574 10578 10572 10575 10587 10595 10602 10605 10605 10606 10608 10612 10616 10618 10621 10625 10629 10633 10636 10640 10645 10650 10656 10659 10662 10666 10671 10675 10677 10680 10683 10686 10693 10698 10701 10707 10713 10717 10723 10728 10731 10728 10718 10719 10729 10736 10742 10749 10751 10753 10754 10757 10760 10762 10766 10770 10772 10774 10775 10777 10779 10781
10507 10507 10507 10508 10509 10509 10511 10512 10514 10515 10517 10519 10520 10522 10525 10527 10529 10532 10535 10538 10541 10545 10549 10552 10556 10560 10567 10566 10560 10570 10582 10587 10595 10599 10597 10597 10599 10605 10609 10612 10615 10618 10622 10625 10629 10634 10639 10646 10651 10653 10658 10663 10666 10669 10672 10676 10680 10683 10689 10693 10697 10703 10706 10710 10715 10720 10723 10717 10709 10714 10725 10729 10735 10743 10746 10749 10750 10752 10754 10757 10763 10766 10767 10768 10770 10772 10775 10777
10494 10494 10495 10495 10496 10497 10499 10501 10503 10504 10506 10508 10510 10513 10516 10518 10521 10524 10527 10529 10533 10538 10540 10545 10548 10553 10559 10554 10552 10565 10574 10579 10587 10590 10588 10587 10589 10596 10601 10605 10609 10612 10616 10620 10624 10628 10634 10641 10646 10650 10654 10657 10660 10665 10669 10673 10676 10679 10684 10687 10692 10696 10699 10702 10707 10713 10713 10707 10703 10711 10719 10723 10728 10737 10742 10745 10747 10747 10747 10752 10759 10762 10762 10763 10765 10768 10771 10773
10481 10481 10482 10482 10482 10485 10487 10489 10491 10493 10496 10498 10500 10504 10506 10509 10512 10515 10518 10521 10525 10530 10533 10538 10542 10546 10550 10543 10544 10558 10566 10570 10575 10578 10578 10575 10578 10587 10593 10599 10602 10606 10611 10615 10620 10624 10629 10637 10642 10645 10649 10652 10658 10662 10665 10669 10671 10675 10679 10682 10686 10689 10691 10694 10699 10703 10702 10700 10702 10708 10713 10717 10722 10731 10738 10741 10743 10742 10742 10748 10754 10756 10756 10759 10762 10765 10767 10768
10467 10467 10469 10470 10469 10471 10474 10477 10480 10482 10485 10487 10490 10494 10496 10499 10503 10505 10509 10513 10517 10521 10526 10532 10535 10538 10539 10534 10538 10548 10554 10558 10564 10569 10567 10564 10570 10580 10587 10593 10597 10601 10605 10609 10616 10620 10627 10634 10637 10640 10645 10649 10654 10657 10661 10665 10667 10670 10673 10675 10679 10682 10684 10687 10691 10694 10694 10697 10700 10702 10706 10709 10715 10726 10733 10736 10739 10738 10738 10744 10748 10749 10751 10754 10758 10761 10763 10763
10451 10452 10454 10456 10457 10457 10460 10464 10467 10470 10473 10476 10480 10483 10485 10489 10493 10496 10500 10505 10510 10514 10520 10525 10527 10529 10528 10526 10529 10537 10544 10552 10558 10561 10558 10560 10568 10575 10583 10588 10591 10596 10599 10605 10612 10617 10623 10628 10630 10635 10641 10646 10650 10653 10657 10658 10658 10662 10665 10667 10671 10675 10677 10680 10684 10686 10689 10693 10695 10697 10700 10702 10710 10722 10728 10732 10734 10734 10735 10739 10742 10744 10746 10750 10754 10756 10757 10758
10435 10437 10439 10442 10444 10444 10446 10451 10455 10458 10461 10464 10469 10472 10474 10479 10482 10487 10492 10497 10503 10507 10512 10517 10518 10519 10519 10519 10523 10531 10540 10548 10553 10557 10556 10558 10563 10570 10578 10582 10586 10591 10596 10602 10608 10613 10617 10621 10626 10633 10638 10642 10644 10646 10647 10647 10650 10655 10659 10661 10665 10669 10672 10676 10679 10680 10684 10687 10689 10691 10694 10696 10704 10716 10724 10728 10729 10729 10731 10735 10737 10738 10741 10744 10747 10749 10750 10753
10420 10421 10423 10426 10430 10431 10432 10437 10443 10446 10449 10453 10457 10460 10463 10468 10472 10479 10485 10490 10495 10498 10504 10509 10510 10510 10512 10514 10518 10527 10534 10540 10547 10551 10550 10551 10557 10564 10571 10575 10580 10586 10593 10598 10602 10607 10610 10616 10623 10628 10631 10633 10634 10637 10638 10641 10646 10650 10654 10658 10662 10666 10668 10672 10675 10675 10680 10683 10682 10685 10687 10689 10698 10710 10718 10722 10725 10727 10729 10731 10731 10731 10734 10738 10741 10743 10745 10747
10404 10406 10408 10411 10416 10419 10419 10424 10429 10433 10437 10441 10445 10449 10452 10457 10464 10473 10478 10482 10486 10490 10496 10501 10501 10502 10504 10507 10512 10518 10525 10532 10538 10541 10541 10544 10550 10557 10564 10569 10575 10582 10588 10591 10594 10600 10607 10615 10620 10621 10622 10624 10627 10631 10633 10637 10642 10647 10651 10655 10660 10662 10663 10668 10671 10672 10677 10679 10677 10681 10682 10684 10693 10705 10712 10717 10722 10725 10725 10724 10723 10724 10728 10731 10735 10738 10740 10741
10388 10390 10393 10396 10401 10405 10406 10410 10415 10420 10425 10429 10434 10437 10441 10449 10458 10465 10470 10474 10478 10483 10487 10492 10493 10492 10495 10500 10504 10510 10518 10523 10528 10531 10533 10537 10544 10552 10556 10561 10568 10574 10578 10582 10588 10597 10606 10613 10612 10612 10614 10618 10624 10628 10630 10634 10639 10644 10647 10652 10655 10654 10657 10664 10667 10668 10672 10674 10674 10678 10678 10680 10689 10699 10706 10713 10718 10720 10719 10718 10718 10719 10722 10726 10730 10732 10734 10736
10372 10375 10378 10381 10386 10391 10394 10398 10402 10407 10413 10418 10422 10426 10433 10443 10452 10457 10462 10465 10469 10474 10479 10484 10484 10482 10487 10494 10498 10504 10511 10515 10518 10522 10525 10531 10539 10544 10548 10554 10561 10565 10570 10577 10585 10594 10603 10605 10603 10605 10608 10612 10620 10622 10624 10630 10636 10640 10643 10647 10648 10648 10653 10658 10660 10662 10665 10667 10670 10672 10674 10676 10684 10693 10701 10708 10712 10713 10713 10714 10715 10716 10718 10721 10724 10726 10729 10731
10356 10360 10363 10366 10372 10377 10382 10385 10389 10394 10401 10407 10411 10417 10426 10436 10442 10447 10452 10456 10460 10465 10469 10474 10476 10475 10480 10488 10493 10499 10503 10506 10511 10515 10519 10526 10532 10535 10541 10548 10551 10557 10565 10572 10578 10586 10594 10593 10592 10596 10600 10607 10615 10616 10620 10627 10632 10635 10638 10640 10641 10643 10648 10652 10655 10656 10658 10661 10665 10668 10670 10674 10682 10690 10697 10703 10707 10708 10709 10710 10711 10712 10714 10716 10718 10720 10722 10725
10341 10344 10347 10352 10357 10363 10369 10374 10377 10382 10389 10396 10401 10408 10417 10426 10433 10439 10443 10447 10452 10456 10460 10466 10469 10466 10470 10483 10491 10492 10495 10501 10506 10509 10514 10520 10525 10529 10535 10539 10544 10552 10559 10565 10570 10579 10585 10583 10584 10590 10595 10603 10610 10611 10616 10623 10626 10630 10633 10633 10634 10637 10642 10647 10652 10653 10654 10658 10661 10665 10668 10672 10679 10687 10694 10699 10702 10702 10704 10705 10706 10707 10709 10710 10712 10713 10715 10718
10326 10329 10333 10337 10342 10350 10357 10363 10366 10370 10377 10385 10391 10399 10409 10417 10425 10429 10433 10439 10443 10446 10452 10458 10458 10455 10465 10481 10483 10482 10489 10495 10498 10500 10507 10513 10517 10521 10526 10533 10540 10545 10550 10556 10562 10570 10576 10577 10580 10586 10592 10599 10605 10607 10612 10618 10623 10626 10626 10625 10628 10632 10638 10644 10648 10649 10650 10652 10656 10661 10664 10667 10675 10684 10690 10695 10696 10696 10698 10700 10701 10702 10704 10705 10705 10705 10707 10711
10311 10315 10319 10324 10330 10337 10343 10349 10354 10359 10367 10375 10382 10392 10401 10408 10414 10418 10423 10431 10434 10436 10444 10449 10447 10450 10462 10471 10471 10476 10483 10485 10487 10493 10499 10503 10507 10512 10520 10528 10534 10537 10541 10547 10556 10566 10571 10572 10576 10583 10588 10596 10603 10606 10609 10615 10619 10620 10619 10619 10623 10628 10633 10639 10643 10645 10645 10645 10651 10658 10660 10665 10673 10681 10687 10691 10692 10693 10695 10696 10696 10697 10698 10698 10697 10698 10700 10703
10298 10301 10306 10312 10318 10323 10330 10338 10344 10350 10358 10366 10374 10384 10392 10398 10405 10409 10416 10423 10423 10427 10437 10439 10438 10446 10456 10461 10467 10473 10473 10474 10480 10484 10488 10492 10496 10503 10513 10522 10528 10530 10534 10543 10555 10562 10564 10567 10573 10578 10584 10593 10600 10600 10602 10609 10613 10612 10612 10614 10617 10622 10629 10635 10638 10641 10641 10643 10649 10654 10658 10664 10671 10678 10684 10687 10688 10689 10690 10690 10691 10692 10692 10691 10691 10692 10695 10698
10285 10289 10294 10300 10305 10311 10320 10329 10335 10342 10350 10358 10367 10375 10382 10388 10395 10402 10409 10414 10414 10420 10428 10430 10433 10442 10449 10456 10463 10464 10463 10468 10473 10475 10479 10484 10489 10497 10506 10513 10518 10521 10528 10539 10548 10551 10555 10561 10565 10570 10579 10588 10591 10591 10595 10604 10606 10603 10606 10610 10611 10616 10625 10631 10634 10637 10640 10644 10647 10651 10655 10661 10668 10675 10681 10683 10683 10684 10685 10686 10686 10687 10686 10686 10686 10688 10691 10693
10274 10278 10283 10288 10294 10301 10310 10319 10327 10335 10342 10351 10359 10366 10372 10380 10388 10396 10401 10405 10408 10414 10420 10423 10427 10434 10441 10450 10454 10453 10455 10459 10462 10468 10475 10479 10483 10491 10498 10502 10506 10512 10521 10531 10538 10543 10547 10551 10555 10565 10575 10579 10581 10583 10590 10597 10596 10596 10602 10605 10606 10612 10621 10626 10630 10635 10639 10643 10645 10647 10651 10656 10664 10673 10677 10678 10679 10679 10680 10681 10681 10681 10681 10682 10683 10684 10686 10688
10265 10268 10273 10278 10284 10292 10300 10311 10320 10326 10333 10343 10351 10357 10365 10373 10382 10388 10393 10398 10402 10405 10410 10415 10420 10427 10436 10443 10444 10444 10447 10450 10454 10464 10470 10472 10477 10485 10491 10496 10502 10508 10516 10525 10533 10538 10541 10545 10554 10564 10568 10570 10574 10578 10584 10589 10588 10592 10599 10600 10601 10608 10615 10622 10627 10633 10639 10642 10643 10643 10646 10652 10660 10668 10672 10674 10675 10675 10675 10676 10676 10676 10677 10678 10679 10680 10681 10684
10258 10261 10265 10269 10276 10284 10292 10303 10312 10317 10326 10335 10343 10350 10358 10367 10375 10380 10386 10389 10389 10393 10401 10408 10414 10421 10429 10433 10435 10436 10440 10443 10450 10459 10463 10466 10471 10479 10488 10496 10502 10509 10518 10526 10531 10534 10538 10547 10554 10558 10560 10564 10569 10574 10579 10583 10586 10591 10595 10596 10599 10605 10612 10619 10625 10631 10637 10639 10639 10640 10642 10646 10653 10662 10668 10670 10671 10670 10670 10671 10672 10672 10673 10674 10674 10675 10678 10681
10251 10254 10257 10263 10269 10276 10286 10296 10304 10310 10320 10328 10335 10344 10353 10360 10365 10370 10374 10376 10379 10388 10397 10403 10409 10415 10422 10427 10429 10430 10434 10438 10445 10453 10457 10459 10464 10471 10479 10487 10495 10504 10514 10520 10523 10528 10535 10542 10547 10551 10556 10562 10567 10572 10578 10583 10587 10591 10593 10596 10599 10604 10610 10616 10621 10628 10633 10634 10635 10637 10638 10641 10646 10655 10663 10667 10667 10666 10666 10668 10669 10668 10668 10668 10669 10671 10674 10677
10245 10248 10252 10257 10264 10271 10280 10289 10296 10305 10314 10322 10329 10339 10346 10350 10354 10359 10364 10369 10378 10388 10394 10400 10406 10411 10417 10421 10422 10424 10428 10433 10439 10447 10451 10453 10458 10465 10472 10480 10489 10496 10503 10508 10513 10522 10530 10538 10546 10552 10557 10562 10566 10571 10576 10580 10582 10585 10588 10591 10595 10601 10606 10610 10615 10621 10625 10627 10629 10632 10635 10639 10643 10649 10656 10662 10663 10662 10663 10664 10664 10664 10663 10662 10664 10667 10670 10672
10240 10244 10248 10253 10259 10266 10274 10281 10289 10299 10308 10316 10325 10332 10335 10340 10347 10355 10361 10369 10378 10385 10390 10398 10403 10407 10411 10414 10416 10419 10423 10427 10434 10441 10445 10448 10454 10461 10468 10477 10484 10489 10496 10503 10510 10518 10525 10535 10543 10547 10551 10556 10561 10566 10569 10572 10576 10578 10579 10585 10593 10598 10600 10602 10607 10613 10617 10620 10623 10628 10634 10638 10641 10644 10649 10654 10658 10658 10659 10660 10659 10659 10657 10657 10660 10663 10665 10668
10237 10240 10244 10249 10255 10261 10268 10276 10285 10294 10304 10312 10319 10322 10327 10336 10346 10353 10359 10368 10375 10380 10387 10393 10396 10400 10404 10407 10410 10414 10418 10423 10430 10436 10439 10442 10448 10454 10461 10469 10476 10483 10492 10501 10508 10515 10522 10529 10532 10535 10542 10548 10554 10559 10562 10568 10573 10573 10577 10587 10593 10590 10590 10594 10600 10606 10610 10613 10619 10626 10632 10635 10638 10641 10642 10646 10652 10654 10655 10656 10655 10655 10653 10652 10655 10658 10660 10663
10233 10237 10241 10246 10252 10257 10264 10271 10281 10291 10299 10305 10308 10313 10324 10336 10343 10348 10356 10364 10371 10377 10383 10387 10389 10393 10397 10401 10405 10409 10414 10419 10426 10432 10435 10437 10442 10449 10456 10464 10470 10477 10487 10495 10502 10509 10518 10522 10523 10530 10537 10541 10546 10550 10555 10562 10567 10569 10576 10584 10581 10577 10583 10591 10595 10600 10605 10610 10617 10624 10628 10630 10634 10638 10638 10641 10645 10648 10650 10650 10650 10650 10647 10646 10650 10654 10656 10658
10231 10235 10239 10243 10248 10254 10260 10267 10277 10286 10292 10296 10303 10314 10325 10332 10336 10343 10353 10360 10367 10373 10377 10380 10384 10388 10392 10397 10401 10404 10410 10416 10422 10427 10430 10433 10439 10445 10452 10459 10467 10473 10479 10486 10493 10501 10508 10511 10515 10524 10531 10535 10538 10541 10547 10556 10562 10566 10570 10570 10567 10571 10582 10588 10592 10597 10602 10608 10614 10619 10623 10626 10630 10635 10636 10636 10639 10642 10645 10646 10646 10646 10644 10643 10647 10651 10653 10655
10230 10233 10236 10240 10245 10250 10256 10264 10273 10280 10286 10293 10304 10315 10321 10326 10332 10341 10350 10356 10362 10367 10371 10375 10380 10383 10388 10392 10396 10401 10407 10412 10417 10421 10425 10429 10434 10440 10446 10455 10463 10468 10473 10480 10487 10494 10500 10503 10509 10518 10524 10527 10530 10535 10546 10555 10559 10561 10561 10561 10565 10572 10579 10583 10587 10592 10597 10602 10608 10612 10618 10623 10626 10630 10631 10631 10634 10638 10640 10642 10643 10644 10643 10642 10644 10648 10650 10651
10229 10231 10234 10238 10243 10248 10254 10262 10269 10275 10283 10293 10303 10310 10315 10321 10330 10338 10345 10351 10357 10363 10368 10372 10376 10379 10384 10388 10393 10398 10402 10407 10412 10417 10420 10423 10427 10434 10442 10450 10457 10462 10468 10476 10482 10488 10493 10498 10505 10513 10517 10522 10530 10539 10549 10553 10553 10556 10559 10561 10565 10570 10574 10577 10582 10587 10591 10597 10602 10607 10614 10618 10621 10624 10625 10627 10630 10632 10634 10636 10638 10640 10640 10640 10641 10644 10646 10647
10228 10230 10233 10236 10241 10246 10251 10258 10264 10272 10281 10290 10297 10303 10310 10318 10327 10335 10342 10348 10354 10360 10365 10369 10372 10376 10380 10385 10389 10393 10397 10403 10408 10412 10415 10417 10423 10431 10439 10447 10453 10457 10462 10470 10477 10484 10490 10496 10503 10509 10515 10523 10533 10541 10543 10542 10546 10551 10555 10557 10560 10563 10567 10571 10577 10583 10587 10591 10596 10602 10608 10612 10614 10618 10621 10623 10624 10625 10628 10630 10632 10635 10637 10637 10639 10641 10642 10643
10228 10230 10232 10235 10238 10243 10248 10254 10262 10270 10278 10285 10292 10300 10308 10317 10326 10332 10338 10345 10352 10358 10362 10365 10369 10373 10377 10381 10385 10389 10394 10399 10404 10408 10411 10414 10420 10428 10435 10443 10448 10451 10459 10468 10476 10483 10488 10494 10500 10506 10513 10521 10528 10533 10533 10535 10539 10544 10546 10549 10552 10555 10560 10567 10574 10579 10581 10584 10589 10594 10601 10606 10610 10615 10618 10618 10619 10621 10624 10626 10629 10632 10633 10634 10636 10637 10638 10640
10228 10230 10232 10235 10238 10243 10249 10256 10263 10269 10277 10285 10292 10300 10309 10317 10324 10330 10336 10343 10350 10355 10359 10363 10367 10370 10374 10376 10380 10386 10391 10396 10400 10403 10406 10410 10417 10423 10430 10436 10441 10447 10456 10465 10471 10477 10483 10490 10497 10503 10510 10515 10520 10526 10528 10528 10531 10536 10542 10545 10548 10552 10558 10565 10570 10572 10573 10576 10581 10587 10594 10601 10607 10610 10612 10613 10613 10616 10619 10622 10625 10627 10628 10629 10631 10633 10635 10637
10229 10231 10234 10237 10241 10246 10252 10260 10266 10272 10280 10287 10294 10302 10310 10316 10322 10329 10336 10342 10347 10352 10356 10360 10364 10368 10370 10373 10377 10383 10388 10392 10395 10397 10401 10407 10414 10420 10426 10432 10438 10446 10455 10463 10469 10475 10481 10487 10493 10499 10505 10510 10516 10520 10521 10522 10527 10535 10541 10543 10546 10550 10554 10559 10562 10564 10567 10571 10576 10582 10589 10596 10601 10604 10606 10607 10608 10611 10615 10617 10620 10622 10623 10624 10625 10628 10630 10632
10232 10234 10237 10240 10245 10249 10253 10261 10269 10275 10282 10288 10295 10303 10310 10316 10322 10329 10335 10340 10345 10349 10353 10358 10362 10365 10367 10370 10375 10380 10384 10388 10393 10397 10401 10406 10411 10417 10422 10428 10435 10444 10452 10459 10464 10470 10476 10482 10488 10495 10503 10509 10513 10516 10519 10522 10527 10533 10537 10538 10540 10543 10546 10552 10556 10558 10563 10569 10574 10579 10584 10591 10596 10599 10601 10603 10605 10608 10610 10612 10614 10616 10617 10618 10619 10622 10625 10626
10234 10237 10240 10243 10247 10251 10255 10260 10267 10274 10281 10289 10296 10303 10310 10316 10323 10329 10334 10340 10345 10349 10353 10357 10360 10362 10364 10368 10372 10377 10381 10386 10391 10395 10399 10403 10409 10413 10417 10423 10431 10439 10446 10452 10457 10463 10470 10476 10483 10492 10499 10503 10505 10509 10514 10516 10520 10526 10530 10532 10535 10537 10540 10545 10550 10554 10561 10566 10571 10576 10580 10584 10589 10593 10596 10598 10601 10604 10605 10607 10609 10610 10612 10613 10615 10617 10618 10619
10237 10239 10242 10246 10249 10254 10258 10262 10267 10274 10282 10290 10297 10304 10310 10317 10323 10329 10335 10340 10344 10348 10352 10355 10357 10359 10361 10365 10370 10374 10379 10383 10387 10390 10394 10400 10406 10412 10417 10424 10430 10436 10442 10447 10453 10459 10466 10474 10481 10487 10491 10493 10497 10502 10506 10510 10513 10519 10523 10526 10529 10531 10534 10540 10546 10552 10558 10562 10567 10574 10577 10579 10584 10587 10589 10592 10595 10598 10600 10602 10603 10605 10607 10609 10611 10611 10611 10613
10241 10242 10245 10249 10253 10256 10261 10266 10271 10277 10284 10291 10298 10305 10312 10319 10324 10330 10335 10339 10343 10347 10350 10352 10355 10357 10360 10364 10369 10374 10378 10381 10384 10388 10392 10396 10403 10411 10419 10425 10430 10435 10440 10445 10451 10458 10465 10472 10478 10483 10485 10488 10492 10498 10502 10506 10511 10516 10520 10523 10526 10528 10532 10538 10544 10548 10553 10557 10563 10570 10573 10574 10577 10580 10583 10586 10590 10592 10593 10595 10597 10599 10602 10604 10605 10605 10606 10607
10245 10247 10249 10253 10257 10262 10267 10273 10279 10284 10289 10295 10301 10308 10314 10321 10326 10331 10335 10339 10342 10345 10348 10351 10353 10356 10359 10364 10370 10373 10376 10379 10383 10386 10389 10394 10401 10408 10416 10422 10427 10433 10439 10444 10450 10457 10463 10470 10475 10478 10480 10483 10488 10495 10500 10504 10509 10514 10518 10521 10524 10528 10532 10536 10540 10543 10548 10554 10558 10563 10566 10567 10570 10574 10578 10581 10584 10586 10587 10588 10590 10593 10596 10598 10600 10600 10600 10602
10250 10252 10254 10257 10262 10267 10272 10278 10285 10291 10297 10302 10308 10313 10318 10322 10326 10329 10333 10337 10339 10342 10345 10348 10351 10353 10357 10363 10368 10371 10374 10379 10383 10385 10388 10393 10400 10406 10412 10420 10426 10432 10438 10443 10450 10457 10463 10468 10472 10475 10477 10481 10488 10495 10499 10503 10508 10512 10516 10519 10523 10527 10529 10532 10535 10539 10544 10549 10552 10555 10559 10562 10565 10569 10572 10576 10579 10581 10581 10581 10582 10585 10589 10592 10593 10593 10594 10595
10255 10258 10262 10265 10268 10273 10279 10284 10291 10297 10303 10308 10313 10317 10320 10323 10326 10329 10332 10335 10337 10340 10342 10345 10348 10352 10357 10362 10366 10369 10373 10378 10382 10385 10389 10394 10400 10405 10411 10418 10425 10432 10438 10444 10451 10456 10461 10465 10469 10472 10476 10482 10488 10494 10498 10501 10505 10508 10512 10516 10520 10522 10524 10526 10529 10534 10538 10541 10545 10548 10552 10555 10557 10560 10563 10568 10571 10574 10574 10574 10576 10579 10582 10584 10585 10586 10588 10589
10261 10264 10268 10272 10275 10280 10285 10290 10295 10300 10305 10309 10313 10316 10319 10323 10326 10329 10331 10334 10336 10338 10341 10344 10349 10352 10356 10360 10364 10367 10371 10375 10379 10384 10389 10395 10401 10406 10411 10417 10424 10431 10438 10445 10450 10453 10457 10462 10465 10469 10474 10479 10484 10489 10493 10495 10499 10503 10506 10510 10514 10516 10518 10520 10524 10528 10531 10535 10538 10541 10543 10545 10548 10551 10555 10559 10563 10565 10566 10567 10570 10573 10575 10577 10578 10580 10581 10583